{"data":{"norad_id":87624,"intl_designator":"","name":"UNKNOWN","alt_names":[],"object_type":"UNKNOWN","status":"UNKNOWN","operator":null,"country":null,"launch_date":null,"launch_site_code":null,"launch_vehicle":null,"mission":null,"orbit_class":"UNKNOWN","rcs_meters":null,"size_class":null,"mass_kg":null,"dimensions":null,"purposes":[],"wikipedia_slug":null,"has_3d_model":false,"image_url":null,"decayed_at":null,"tle_current":{"epoch":"2026-09-18T15:07:57.435168Z","epoch_age_seconds":176255,"freshness":"STALE","line1":"1 87624U          26261.63052587  .00003316  00000+0  49121-3 0  9992","line2":"2 87624  98.7069 223.1091 0094664  91.1429 270.0623 14.72878839621445","mean_motion":14.72878839,"eccentricity":0.0094664,"inclination_deg":98.7069,"raan_deg":223.1091,"arg_perigee_deg":91.1429,"mean_anomaly_deg":270.0623,"bstar":0.00049121,"rev_number":62144,"period_min":97.767715977078,"perigee_km":585.34362277815,"apogee_km":718.44176900452,"semimajor_km":7030.0296958913,"source":"CELESTRAK","updated_at":"2026-09-20T09:00:32.477464Z"}}}